Back to catalog

STARLINK-37797

AliveCommunicationsVLEO
NORAD 100052·PAYLOAD·🇺🇸 United States

Launched Jul 14, 2026 from Cape Canaveral Space Force Station

Loading…

Next Passes (next 24 hours)

TLE

FreshSource: Space-Track

Epoch: Sep 14, 2026, 09:23 UTC

1 A0052U 26161AA  26257.39122533  .00020200  00000-0  60730-3 0  9996
2 A0052  53.1603  26.1844 0001544  80.0764 280.0412 15.34404557  9678

Track STARLINK-37797 in real time with AllMySat

Download on the App Store